�������ь��\,,,,,,,,,,,
���l�̌ܓ��̊֌W�ō��v������Ȃ����Ƃ�����܂��B,,,,,,,,,,,�i�P�ʁFMWh�j
,,,,,,,,,,,
DATE,TIME,"�G���A��
���v����",,�G���A�̋�������,,,,,,,
,,,,�Η�,����,�޲�Ͻ,���z��,,����,,���v
,,,,,,,,"���z��
�o�͐����",,"����
�o�͐����",
,,,,,,,,,,,
2017/4/1,0:00,649.4,,637.3,0.6,1.7,0,0,9.8,0,649.4
2017/4/1,1:00,631.6,,618.1,0.6,1.7,0,0,11.2,0,631.6
2017/4/1,2:00,645.1,,629.5,0.6,1.7,0,0,13.3,0,645.1
2017/4/1,3:00,669.2,,651.8,0.6,1.7,0,0,15.1,0,669.2
2017/4/1,4:00,661.9,,647.2,0.6,1.7,0,0,12.4,0,661.9
2017/4/1,5:00,637.4,,623.1,0.6,1.7,0,0,12,0,637.4
2017/4/1,6:00,629.8,,613.4,0.6,1.7,0.7,0,13.4,0,629.8
2017/4/1,7:00,679.3,,661.2,0.6,1.7,4.3,0,11.5,0,679.3
2017/4/1,8:00,735.3,,717,0.6,1.7,9.2,0,6.8,0,735.3
2017/4/1,9:00,776.4,,756.9,0.6,1.7,11.9,0,5.3,0,776.4
2017/4/1,10:00,782.7,,760,0.6,1.7,15.8,0,4.6,0,782.7
2017/4/1,11:00,796.5,,767.7,0.6,1.7,18.4,0,8.1,0,796.5
2017/4/1,12:00,784.5,,758.5,0.6,1.7,12.6,0,11.1,0,784.5
2017/4/1,13:00,785.7,,725.2,0.6,1.7,44.3,0,13.9,0,785.7
2017/4/1,14:00,780.1,,713.7,0.6,1.7,49.7,0,14.4,0,780.1
2017/4/1,15:00,777.7,,696.1,0.6,1.7,65.5,0,13.8,0,777.7
2017/4/1,16:00,792.8,,725.8,0.6,1.7,51,0,13.7,0,792.8
2017/4/1,17:00,783.4,,749.2,0.6,1.7,18.2,0,13.7,0,783.4
2017/4/1,18:00,824.1,,805.5,0.6,1.7,2.7,0,13.6,0,824.1
2017/4/1,19:00,861.6,,845.5,0.6,1.7,0,0,13.8,0,861.6
2017/4/1,20:00,840,,824.3,0.6,1.7,0,0,13.4,0,840
2017/4/1,21:00,809.1,,792.7,0.6,1.7,0,0,14.1,0,809.1
2017/4/1,22:00,783.7,,766.7,0.6,1.7,0,0,14.7,0,783.7
2017/4/1,23:00,747.5,,730.5,0.6,1.7,0,0,14.7,0,747.5
2017/4/2,0:00,696.4,,681,0.6,1.7,0,0,13.1,0,696.4
2017/4/2,1:00,674,,660.5,0.6,1.7,0,0,11.2,0,674
2017/4/2,2:00,694.8,,680.7,0.6,1.7,0,0,11.8,0,694.8
2017/4/2,3:00,713.1,,698.6,0.6,1.7,0,0,12.2,0,713.1
2017/4/2,4:00,709.3,,693.9,0.6,1.7,0,0,13.1,0,709.3
2017/4/2,5:00,675.7,,660.6,0.6,1.7,0,0,12.8,0,675.7
2017/4/2,6:00,640.2,,624.2,0.6,1.7,0.9,0,12.8,0,640.2
2017/4/2,7:00,653.5,,612.4,0.6,1.7,25.1,0,13.7,0,653.5
2017/4/2,8:00,693.6,,597.3,0.6,1.7,80,0,14,0,693.6
2017/4/2,9:00,712.5,,574.5,0.6,1.7,120.7,0,15,0,712.5
2017/4/2,10:00,741,,550,0.6,1.7,173.6,0,15.1,0,741
2017/4/2,11:00,742.7,,532.9,0.6,1.7,192.3,0,15.2,0,742.7
2017/4/2,12:00,750.5,,513.1,0.6,1.7,220.5,0,14.6,0,750.5
2017/4/2,13:00,745.9,,509.8,0.6,1.7,219.3,0,14.5,0,745.9
2017/4/2,14:00,740.4,,522.4,0.6,1.7,201.6,0,14.1,0,740.4
2017/4/2,15:00,732.5,,555.5,0.6,1.7,160,0,14.7,0,732.5
2017/4/2,16:00,740.3,,621.7,0.6,1.7,102.6,0,13.7,0,740.3
2017/4/2,17:00,760.8,,696.8,0.6,1.7,49.1,0,12.6,0,760.8
2017/4/2,18:00,805,,787.4,0.6,1.7,5,0,10.3,0,805
2017/4/2,19:00,869,,859.2,0.6,1.7,0,0,7.5,0,869
2017/4/2,20:00,850.9,,842.5,0.6,1.7,0,0,6.1,0,850.9
2017/4/2,21:00,819,,811.9,0.6,1.7,0,0,4.8,0,819
2017/4/2,22:00,770.9,,763.4,0.6,1.7,0,0,5.2,0,770.9
2017/4/2,23:00,712.5,,703.3,0.6,1.7,0,0,6.9,0,712.5
2017/4/3,0:00,664.5,,655.3,0.6,1.7,0,0,6.9,0,664.5
2017/4/3,1:00,654.2,,645.1,0.6,1.7,0,0,6.8,0,654.2
2017/4/3,2:00,672.1,,661.9,0.6,1.7,0,0,7.9,0,672.1
2017/4/3,3:00,697.9,,689.9,0.6,1.7,0,0,5.7,0,697.9
2017/4/3,4:00,700.7,,692.2,0.6,1.7,0,0,6.2,0,700.7
2017/4/3,5:00,676.6,,668.4,0.6,1.7,0,0,5.9,0,676.6
2017/4/3,6:00,686.8,,678.7,0.6,1.7,1.2,0,4.6,0,686.8
2017/4/3,7:00,718.2,,680.2,0.6,1.7,32,0,3.7,0,718.2
2017/4/3,8:00,744.8,,650.8,0.6,1.7,88.7,0,3,0,744.8
2017/4/3,9:00,769.5,,622.9,0.6,1.7,142.3,0,2,0,769.5
2017/4/3,10:00,773.5,,585.8,0.6,1.7,183.2,0,2.2,0,773.5
2017/4/3,11:00,787.5,,575.9,0.6,1.7,207.5,0,1.8,0,787.5
2017/4/3,12:00,777.4,,552,0.6,1.7,222,0,1.1,0,777.4
2017/4/3,13:00,799.1,,577.6,0.6,1.7,218.4,0,0.8,0,799.1
2017/4/3,14:00,799.3,,605.9,0.6,1.7,190.1,0,1,0,799.3
2017/4/3,15:00,784.2,,647.4,0.6,1.7,133,0,1.5,0,784.2
2017/4/3,16:00,791,,695.8,0.6,1.7,91,0,1.9,0,791
2017/4/3,17:00,794.8,,750.7,0.6,1.7,40.6,0,1.2,0,794.8
2017/4/3,18:00,818.7,,812.2,0.6,1.7,3,0,1.2,0,818.7
2017/4/3,19:00,862.4,,859.3,0.6,1.7,0,0,0.8,0,862.4
2017/4/3,20:00,838.3,,835.6,0.6,1.7,0,0,0.4,0,838.3
2017/4/3,21:00,798.4,,795.7,0.6,1.7,0,0,0.4,0,798.4
2017/4/3,22:00,760.2,,757.5,0.6,1.7,0,0,0.4,0,760.2
2017/4/3,23:00,714.7,,712.2,0.6,1.7,0,0,0.2,0,714.7
2017/4/4,0:00,670.6,,668.1,0.6,1.7,0,0,0.2,0,670.6
2017/4/4,1:00,656.4,,653.9,0.6,1.7,0,0,0.2,0,656.4
2017/4/4,2:00,673.2,,670.7,0.6,1.7,0,0,0.2,0,673.2
2017/4/4,3:00,693.4,,690.9,0.6,1.7,0,0,0.2,0,693.4
2017/4/4,4:00,695.6,,693.1,0.6,1.7,0,0,0.2,0,695.6
2017/4/4,5:00,679.7,,677.1,0.6,1.7,0,0,0.3,0,679.7
2017/4/4,6:00,679.6,,675.6,0.6,1.7,1.2,0,0.5,0,679.6
2017/4/4,7:00,717.9,,687.7,0.6,1.7,27.4,0,0.5,0,717.9
2017/4/4,8:00,759.7,,676,0.6,1.7,80.4,0,1,0,759.7
2017/4/4,9:00,787.3,,661.8,0.6,1.7,122.2,0,1,0,787.3
2017/4/4,10:00,793.5,,647,0.6,1.7,143,0,1.2,0,793.5
2017/4/4,11:00,780.4,,631.6,0.6,1.7,145.2,0,1.3,0,780.4
2017/4/4,12:00,797.1,,597.1,0.6,1.7,196,0,1.7,0,797.1
2017/4/4,13:00,803.6,,608.8,0.6,1.7,190.6,0,1.9,0,803.6
2017/4/4,14:00,790.1,,624.3,0.6,1.7,160.9,0,2.6,0,790.1
2017/4/4,15:00,801,,652,0.6,1.7,143.3,0,3.4,0,801
2017/4/4,16:00,797,,707.2,0.6,1.7,83.7,0,3.8,0,797
2017/4/4,17:00,794.4,,749.6,0.6,1.7,38.6,0,3.9,0,794.4
2017/4/4,18:00,823.9,,815.2,0.6,1.7,2.8,0,3.6,0,823.9
2017/4/4,19:00,859.7,,853.9,0.6,1.7,0,0,3.5,0,859.7
2017/4/4,20:00,838.3,,831.8,0.6,1.7,0,0,4.2,0,838.3
2017/4/4,21:00,796.5,,789,0.6,1.7,0,0,5.2,0,796.5
2017/4/4,22:00,746.7,,738.7,0.6,1.7,0,0,5.7,0,746.7
2017/4/4,23:00,688.2,,680.3,0.6,1.7,0,0,5.6,0,688.2
2017/4/5,0:00,632.4,,625.5,0.6,1.7,0,0,4.6,0,632.4
2017/4/5,1:00,616.6,,608,0.6,1.7,0,0,6.3,0,616.6
2017/4/5,2:00,636.2,,626.3,0.6,1.7,0,0,7.6,0,636.2
2017/4/5,3:00,659.6,,648.6,0.6,1.7,0,0,8.7,0,659.6
2017/4/5,4:00,658.5,,647.3,0.6,1.7,0,0,8.9,0,658.5
2017/4/5,5:00,638.1,,626.8,0.6,1.7,0,0,9,0,638.1
2017/4/5,6:00,646.3,,634.3,0.6,1.7,1.2,0,8.5,0,646.3
2017/4/5,7:00,681.1,,650.7,0.6,1.7,20.4,0,7.7,0,681.1
2017/4/5,8:00,751.4,,661.3,0.6,1.7,79.5,0,8.3,0,751.4
2017/4/5,9:00,796.3,,681.1,0.6,1.7,106.2,0,6.7,0,796.3
2017/4/5,10:00,812.8,,690,0.6,1.7,114.3,0,6.2,0,812.8
2017/4/5,11:00,809.8,,622.2,0.6,1.7,178,0,7.3,0,809.8
2017/4/5,12:00,810.3,,595.3,0.6,1.7,204.1,0,8.6,0,810.3
2017/4/5,13:00,825.5,,597.2,0.6,1.7,218.6,0,7.4,0,825.5
2017/4/5,14:00,826,,621.9,0.6,1.7,193.7,0,8.1,0,826
2017/4/5,15:00,838.2,,675,0.6,1.7,152.8,0,8.1,0,838.2
2017/4/5,16:00,822,,728.4,0.6,1.7,82.4,0,8.9,0,822
2017/4/5,17:00,801.7,,764.1,0.6,1.7,25.6,0,9.7,0,801.7
2017/4/5,18:00,832.2,,817.7,0.6,1.7,2.9,0,9.3,0,832.2
2017/4/5,19:00,872.9,,861.3,0.6,1.7,0,0,9.3,0,872.9
2017/4/5,20:00,846.7,,835.2,0.6,1.7,0,0,9.2,0,846.7
2017/4/5,21:00,804.9,,792.8,0.6,1.7,0,0,9.8,0,804.9
2017/4/5,22:00,750.3,,739.3,0.6,1.7,0,0,8.7,0,750.3
2017/4/5,23:00,691.6,,680.1,0.6,1.7,0,0,9.2,0,691.6
2017/4/6,0:00,636.3,,624.5,0.6,1.7,0,0,9.5,0,636.3
2017/4/6,1:00,618.9,,606.2,0.6,1.7,0,0,10.4,0,618.9
2017/4/6,2:00,637.7,,624.7,0.6,1.7,0,0,10.7,0,637.7
2017/4/6,3:00,660.6,,647.5,0.6,1.7,0,0,10.8,0,660.6
2017/4/6,4:00,661.8,,649.6,0.6,1.7,0,0,9.9,0,661.8
2017/4/6,5:00,643.6,,632,0.6,1.7,0,0,9.3,0,643.6
2017/4/6,6:00,648.3,,635.7,0.6,1.7,1.1,0,9.2,0,648.3
2017/4/6,7:00,692.6,,664.7,0.6,1.7,15.5,0,10.1,0,692.6
2017/4/6,8:00,765.8,,711,0.6,1.7,43.4,0,9.1,0,765.8
2017/4/6,9:00,825.9,,740,0.6,1.7,73.2,0,10.4,0,825.9
2017/4/6,10:00,844.4,,715,0.6,1.7,116.6,0,10.5,0,844.4
2017/4/6,11:00,856.9,,726.7,0.6,1.7,118.1,0,9.8,0,856.9
2017/4/6,12:00,829.9,,725.9,0.6,1.7,91.4,0,10.3,0,829.9
2017/4/6,13:00,842.9,,745.7,0.6,1.7,85.4,0,9.5,0,842.9
2017/4/6,14:00,835.8,,743.2,0.6,1.7,82.5,0,7.8,0,835.8
2017/4/6,15:00,854.7,,743.4,0.6,1.7,100,0,9,0,854.7
2017/4/6,16:00,856,,769.2,0.6,1.7,73.8,0,10.7,0,856
2017/4/6,17:00,843.8,,800.2,0.6,1.7,31.9,0,9.4,0,843.8
2017/4/6,18:00,866.7,,851.7,0.6,1.7,2.7,0,10,0,866.7
2017/4/6,19:00,895.9,,884.3,0.6,1.7,0,0,9.3,0,895.9
2017/4/6,20:00,867.6,,855,0.6,1.7,0,0,10.3,0,867.6
2017/4/6,21:00,823.8,,811.4,0.6,1.7,0,0,10.1,0,823.8
2017/4/6,22:00,765.6,,753.6,0.6,1.7,0,0,9.7,0,765.6
2017/4/6,23:00,704.6,,693.2,0.6,1.7,0,0,9.1,0,704.6
2017/4/7,0:00,650,,638.4,0.6,1.7,0,0,9.3,0,650
2017/4/7,1:00,630.2,,618.4,0.6,1.7,0,0,9.5,0,630.2
2017/4/7,2:00,644.1,,634.2,0.6,1.7,0,0,7.6,0,644.1
2017/4/7,3:00,670.9,,660.6,0.6,1.7,0,0,8,0,670.9
2017/4/7,4:00,670.3,,661.3,0.6,1.7,0,0,6.7,0,670.3
2017/4/7,5:00,652.7,,645.5,0.6,1.7,0,0,4.9,0,652.7
2017/4/7,6:00,666.7,,658.5,0.6,1.7,1.1,0,4.8,0,666.7
2017/4/7,7:00,718.2,,693.5,0.6,1.7,15.3,0,7.1,0,718.2
2017/4/7,8:00,785.5,,722.6,0.6,1.7,52.6,0,8,0,785.5
2017/4/7,9:00,840.8,,730.3,0.6,1.7,102.5,0,5.7,0,840.8
2017/4/7,10:00,863.2,,729.5,0.6,1.7,126.4,0,5,0,863.2
2017/4/7,11:00,879.6,,759,0.6,1.7,114.3,0,4,0,879.6
2017/4/7,12:00,866.2,,744.1,0.6,1.7,116.9,0,2.9,0,866.2
2017/4/7,13:00,867.4,,791.7,0.6,1.7,71.2,0,2.2,0,867.4
2017/4/7,14:00,861.6,,805.3,0.6,1.7,52.2,0,1.8,0,861.6
2017/4/7,15:00,859,,808.2,0.6,1.7,47.6,0,0.9,0,859
2017/4/7,16:00,870.3,,819.7,0.6,1.7,47.8,0,0.5,0,870.3
2017/4/7,17:00,860.5,,845.2,0.6,1.7,12.4,0,0.6,0,860.5
2017/4/7,18:00,878.2,,873.5,0.6,1.7,1.9,0,0.5,0,878.2
2017/4/7,19:00,900.3,,897.2,0.6,1.7,0,0,0.8,0,900.3
2017/4/7,20:00,871.4,,868,0.6,1.7,0,0,1.1,0,871.4
2017/4/7,21:00,830.4,,826.7,0.6,1.7,0,0,1.4,0,830.4
2017/4/7,22:00,796.3,,791.9,0.6,1.7,0,0,2.1,0,796.3
2017/4/7,23:00,759.6,,753.9,0.6,1.7,0,0,3.4,0,759.6
2017/4/8,0:00,705.8,,699.7,0.6,1.7,0,0,3.8,0,705.8
2017/4/8,1:00,672.1,,665.5,0.6,1.7,0,0,4.3,0,672.1
2017/4/8,2:00,688.7,,681.7,0.6,1.7,0,0,4.7,0,688.7
2017/4/8,3:00,707.3,,698.5,0.6,1.7,0,0,6.5,0,707.3
2017/4/8,4:00,707.2,,699.2,0.6,1.7,0,0,5.7,0,707.2
2017/4/8,5:00,684.1,,677,0.6,1.7,0,0,4.8,0,684.1
2017/4/8,6:00,668.3,,658.5,0.6,1.7,2.1,0,5.4,0,668.3
2017/4/8,7:00,712.1,,669.6,0.6,1.7,35.2,0,5,0,712.1
2017/4/8,8:00,775.3,,672.5,0.6,1.7,94.6,0,5.9,0,775.3
2017/4/8,9:00,834.2,,683,0.6,1.7,142.1,0,6.8,0,834.2
2017/4/8,10:00,860.3,,692.1,0.6,1.7,160.2,0,5.7,0,860.3
2017/4/8,11:00,883.3,,707.4,0.6,1.7,168.4,0,5.2,0,883.3
2017/4/8,12:00,870,,688.8,0.6,1.7,174.2,0,4.7,0,870
2017/4/8,13:00,874.5,,672.4,0.6,1.7,196.6,0,3.2,0,874.5
2017/4/8,14:00,895.5,,707.8,0.6,1.7,182.4,0,3,0,895.5
2017/4/8,15:00,886.6,,734.9,0.6,1.7,147,0,2.4,0,886.6
2017/4/8,16:00,899.5,,796.7,0.6,1.7,98.9,0,1.6,0,899.5
2017/4/8,17:00,881.3,,855.2,0.6,1.7,22.5,0,1.3,0,881.3
2017/4/8,18:00,905.3,,899.2,0.6,1.7,3.2,0,0.6,0,905.3
2017/4/8,19:00,934.1,,930.8,0.6,1.7,0,0,1,0,934.1
2017/4/8,20:00,903.3,,900,0.6,1.7,0,0,1,0,903.3
2017/4/8,21:00,872.3,,869.1,0.6,1.7,0,0,0.9,0,872.3
2017/4/8,22:00,822.2,,819.1,0.6,1.7,0,0,0.8,0,822.2
2017/4/8,23:00,771.4,,768.2,0.6,1.7,0,0,0.9,0,771.4
2017/4/9,0:00,717.3,,714.3,0.6,1.7,0,0,0.7,0,717.3
2017/4/9,1:00,682.9,,680,0.6,1.7,0,0,0.6,0,682.9
2017/4/9,2:00,697.8,,695,0.6,1.7,0,0,0.5,0,697.8
2017/4/9,3:00,716.8,,714.2,0.6,1.7,0,0,0.3,0,716.8
2017/4/9,4:00,715.1,,712.7,0.6,1.7,0,0,0.1,0,715.1
2017/4/9,5:00,681.8,,679.2,0.6,1.7,0,0,0.3,0,681.8
2017/4/9,6:00,659.9,,655.5,0.6,1.7,1.2,0,0.9,0,659.9
2017/4/9,7:00,692.4,,661.9,0.6,1.7,27.7,0,0.5,0,692.4
2017/4/9,8:00,746.6,,664.6,0.6,1.7,78.6,0,1.1,0,746.6
2017/4/9,9:00,798.1,,679.5,0.6,1.7,114.2,0,2.1,0,798.1
2017/4/9,10:00,820.4,,678.8,0.6,1.7,136.6,0,2.7,0,820.4
2017/4/9,11:00,810.2,,668,0.6,1.7,136.8,0,3.1,0,810.2
2017/4/9,12:00,844.3,,656.9,0.6,1.7,181.5,0,3.6,0,844.3
2017/4/9,13:00,867.8,,685.5,0.6,1.7,176.4,0,3.6,0,867.8
2017/4/9,14:00,840.2,,691.8,0.6,1.7,142.7,0,3.4,0,840.2
2017/4/9,15:00,859.1,,710.4,0.6,1.7,143.5,0,2.9,0,859.1
2017/4/9,16:00,865.4,,763.6,0.6,1.7,97.5,0,2,0,865.4
2017/4/9,17:00,866.8,,829.8,0.6,1.7,33,0,1.7,0,866.8
2017/4/9,18:00,891.9,,884.6,0.6,1.7,3.5,0,1.5,0,891.9
2017/4/9,19:00,926.5,,923,0.6,1.7,0,0,1.2,0,926.5
2017/4/9,20:00,884.8,,881.1,0.6,1.7,0,0,1.4,0,884.8
2017/4/9,21:00,843.6,,839.1,0.6,1.7,0,0,2.2,0,843.6
2017/4/9,22:00,788.1,,782.3,0.6,1.7,0,0,3.5,0,788.1
2017/4/9,23:00,729.5,,723.1,0.6,1.7,0,0,4.1,0,729.5
2017/4/10,0:00,671.9,,664.4,0.6,1.7,0,0,5.2,0,671.9
2017/4/10,1:00,649,,641.2,0.6,1.7,0,0,5.5,0,649
2017/4/10,2:00,659.9,,650.8,0.6,1.7,0,0,6.8,0,659.9
2017/4/10,3:00,683.6,,673.1,0.6,1.7,0,0,8.2,0,683.6
2017/4/10,4:00,690.8,,678,0.6,1.7,0,0,10.5,0,690.8
2017/4/10,5:00,683.7,,670.9,0.6,1.7,0,0,10.5,0,683.7
2017/4/10,6:00,713.1,,697.2,0.6,1.7,2,0,11.6,0,713.1
2017/4/10,7:00,786.4,,761.5,0.6,1.7,13.5,0,9.1,0,786.4
2017/4/10,8:00,867.4,,825.7,0.6,1.7,29.5,0,9.9,0,867.4
2017/4/10,9:00,919.7,,874.2,0.6,1.7,32.6,0,10.6,0,919.7
2017/4/10,10:00,928,,884,0.6,1.7,31.5,0,10.2,0,928
2017/4/10,11:00,924.2,,894.1,0.6,1.7,16.8,0,11,0,924.2
2017/4/10,12:00,910.2,,839.9,0.6,1.7,58.8,0,9.2,0,910.2
2017/4/10,13:00,946,,842,0.6,1.7,91.3,0,10.4,0,946
2017/4/10,14:00,973.7,,847.1,0.6,1.7,114.1,0,10.2,0,973.7
2017/4/10,15:00,968.8,,837.2,0.6,1.7,117.8,0,11.5,0,968.8
2017/4/10,16:00,976.4,,888.3,0.6,1.7,73.3,0,12.5,0,976.4
2017/4/10,17:00,952.8,,924.8,0.6,1.7,15.3,0,10.4,0,952.8
2017/4/10,18:00,967.2,,954,0.6,1.7,2,0,8.9,0,967.2
2017/4/10,19:00,975.6,,966.6,0.6,1.7,0,0,6.7,0,975.6
2017/4/10,20:00,943.4,,935.6,0.6,1.7,0,0,5.5,0,943.4
2017/4/10,21:00,897,,889.8,0.6,1.7,0,0,4.9,0,897
2017/4/10,22:00,852.6,,847.2,0.6,1.7,0,0,3.1,0,852.6
2017/4/10,23:00,809.1,,804.7,0.6,1.7,0,0,2.1,0,809.1
2017/4/11,0:00,746,,741.8,0.6,1.7,0,0,1.9,0,746
2017/4/11,1:00,717.1,,713.4,0.6,1.7,0,0,1.4,0,717.1
2017/4/11,2:00,718,,713.6,0.6,1.7,0,0,2.1,0,718
2017/4/11,3:00,744.2,,738.6,0.6,1.7,0,0,3.3,0,744.2
2017/4/11,4:00,745.1,,738,0.6,1.7,0,0,4.8,0,745.1
2017/4/11,5:00,743.2,,736.9,0.6,1.7,0,0,4,0,743.2
2017/4/11,6:00,762.7,,756.1,0.6,1.7,1,0,3.3,0,762.7
2017/4/11,7:00,839.5,,826.6,0.6,1.7,6.9,0,3.7,0,839.5
2017/4/11,8:00,900.5,,882.4,0.6,1.7,12.6,0,3.2,0,900.5
2017/4/11,9:00,949.9,,923.8,0.6,1.7,19.7,0,4.1,0,949.9
2017/4/11,10:00,966.2,,933.6,0.6,1.7,24.4,0,5.9,0,966.2
2017/4/11,11:00,941.3,,909.9,0.6,1.7,22.2,0,6.9,0,941.3
2017/4/11,12:00,902.4,,855.2,0.6,1.7,37.1,0,7.8,0,902.4
2017/4/11,13:00,913.6,,868.8,0.6,1.7,34.3,0,8.2,0,913.6
2017/4/11,14:00,907.3,,875.2,0.6,1.7,21.2,0,8.6,0,907.3
2017/4/11,15:00,898.8,,864.3,0.6,1.7,24,0,8.2,0,898.8
2017/4/11,16:00,899.2,,864.5,0.6,1.7,24.1,0,8.3,0,899.2
2017/4/11,17:00,888.6,,866.9,0.6,1.7,11.4,0,8,0,888.6
2017/4/11,18:00,909.2,,896.2,0.6,1.7,2.1,0,8.6,0,909.2
2017/4/11,19:00,910.8,,900.3,0.6,1.7,0,0,8.2,0,910.8
2017/4/11,20:00,874.6,,865.8,0.6,1.7,0,0,6.5,0,874.6
2017/4/11,21:00,829.3,,820.5,0.6,1.7,0,0,6.5,0,829.3
2017/4/11,22:00,769.9,,761.8,0.6,1.7,0,0,5.8,0,769.9
2017/4/11,23:00,710.5,,702.6,0.6,1.7,0,0,5.6,0,710.5
2017/4/12,0:00,653.6,,646.5,0.6,1.7,0,0,4.8,0,653.6
2017/4/12,1:00,628.9,,622.3,0.6,1.7,0,0,4.3,0,628.9
2017/4/12,2:00,642.3,,635.6,0.6,1.7,0,0,4.4,0,642.3
2017/4/12,3:00,668,,661.2,0.6,1.7,0,0,4.5,0,668
2017/4/12,4:00,673.7,,667.5,0.6,1.7,0,0,3.9,0,673.7
2017/4/12,5:00,668.2,,661.3,0.6,1.7,0,0,4.6,0,668.2
2017/4/12,6:00,678.5,,669.2,0.6,1.7,1.1,0,5.9,0,678.5
2017/4/12,7:00,733.3,,715.3,0.6,1.7,8.1,0,7.6,0,733.3
2017/4/12,8:00,797.2,,761.7,0.6,1.7,26.3,0,6.9,0,797.2
2017/4/12,9:00,834.9,,811.3,0.6,1.7,15.1,0,6.2,0,834.9
2017/4/12,10:00,838.4,,819.1,0.6,1.7,14.5,0,2.5,0,838.4
2017/4/12,11:00,830.7,,807,0.6,1.7,20,0,1.4,0,830.7
2017/4/12,12:00,800.1,,757.8,0.6,1.7,38,0,2,0,800.1
2017/4/12,13:00,814.3,,760.2,0.6,1.7,49.1,0,2.7,0,814.3
2017/4/12,14:00,817.4,,749.3,0.6,1.7,61.9,0,3.9,0,817.4
2017/4/12,15:00,822.6,,718.4,0.6,1.7,98,0,3.9,0,822.6
2017/4/12,16:00,829.8,,729.9,0.6,1.7,94.3,0,3.3,0,829.8
2017/4/12,17:00,822.4,,767.2,0.6,1.7,49.3,0,3.6,0,822.4
2017/4/12,18:00,831.6,,821.6,0.6,1.7,4.4,0,3.3,0,831.6
2017/4/12,19:00,873.7,,868,0.6,1.7,0,0,3.4,0,873.7
2017/4/12,20:00,849.9,,844.5,0.6,1.7,0,0,3.1,0,849.9
2017/4/12,21:00,805.9,,800.8,0.6,1.7,0,0,2.8,0,805.9
2017/4/12,22:00,747.2,,742.5,0.6,1.7,0,0,2.4,0,747.2
2017/4/12,23:00,687.5,,683.5,0.6,1.7,0,0,1.7,0,687.5
2017/4/13,0:00,634.8,,630.9,0.6,1.7,0,0,1.6,0,634.8
2017/4/13,1:00,614.3,,609.6,0.6,1.7,0,0,2.4,0,614.3
2017/4/13,2:00,630.1,,626.2,0.6,1.7,0,0,1.6,0,630.1
2017/4/13,3:00,659.3,,654.3,0.6,1.7,0,0,2.7,0,659.3
2017/4/13,4:00,664.4,,658.7,0.6,1.7,0,0,3.4,0,664.4
2017/4/13,5:00,656.2,,649.3,0.6,1.7,0,0,4.6,0,656.2
2017/4/13,6:00,659.3,,648.3,0.6,1.7,3.1,0,5.6,0,659.3
2017/4/13,7:00,703.6,,656.1,0.6,1.7,39.5,0,5.7,0,703.6
2017/4/13,8:00,763.7,,682.4,0.6,1.7,72.4,0,6.6,0,763.7
2017/4/13,9:00,810.5,,714.8,0.6,1.7,89.1,0,4.3,0,810.5
2017/4/13,10:00,823.8,,698.4,0.6,1.7,119.5,0,3.6,0,823.8
2017/4/13,11:00,842.1,,648.3,0.6,1.7,188.1,0,3.4,0,842.1
2017/4/13,12:00,827.5,,600.1,0.6,1.7,222,0,3.1,0,827.5
2017/4/13,13:00,845.6,,619.1,0.6,1.7,221.5,0,2.7,0,845.6
2017/4/13,14:00,850.4,,651.7,0.6,1.7,193.9,0,2.5,0,850.4
2017/4/13,15:00,843.5,,672.8,0.6,1.7,165.8,0,2.6,0,843.5
2017/4/13,16:00,843.9,,727.5,0.6,1.7,112.1,0,2,0,843.9
2017/4/13,17:00,833.7,,775.8,0.6,1.7,54.1,0,1.5,0,833.7
2017/4/13,18:00,848.5,,836.8,0.6,1.7,7.2,0,2.2,0,848.5
2017/4/13,19:00,880.2,,875.8,0.6,1.7,0,0,2.1,0,880.2
2017/4/13,20:00,851.7,,847.3,0.6,1.7,0,0,2.1,0,851.7
2017/4/13,21:00,809,,805.4,0.6,1.7,0,0,1.3,0,809
2017/4/13,22:00,751.8,,748.4,0.6,1.7,0,0,1.1,0,751.8
2017/4/13,23:00,696,,692.6,0.6,1.7,0,0,1.1,0,696
2017/4/14,0:00,641.8,,638.2,0.6,1.7,0,0,1.3,0,641.8
2017/4/14,1:00,619.9,,615.6,0.6,1.7,0,0,2,0,619.9
2017/4/14,2:00,637,,632.8,0.6,1.7,0,0,1.9,0,637
2017/4/14,3:00,663.2,,659,0.6,1.7,0,0,1.9,0,663.2
2017/4/14,4:00,668.1,,663.7,0.6,1.7,0,0,2.1,0,668.1
2017/4/14,5:00,658.2,,654.2,0.6,1.7,0,0,1.7,0,658.2
2017/4/14,6:00,664.2,,658,0.6,1.7,2.4,0,1.5,0,664.2
2017/4/14,7:00,716,,680.5,0.6,1.7,32,0,1.2,0,716
2017/4/14,8:00,774.6,,703.1,0.6,1.7,68,0,1.2,0,774.6
2017/4/14,9:00,829.8,,713.2,0.6,1.7,113.1,0,1.2,0,829.8
2017/4/14,10:00,852.9,,676.7,0.6,1.7,172.8,0,1.1,0,852.9
2017/4/14,11:00,871.4,,671.7,0.6,1.7,196.2,0,1.2,0,871.4
2017/4/14,12:00,859.4,,644.9,0.6,1.7,210.7,0,1.5,0,859.4
2017/4/14,13:00,887.5,,680.5,0.6,1.7,203.3,0,1.4,0,887.5
2017/4/14,14:00,887.1,,705.4,0.6,1.7,177.9,0,1.5,0,887.1
2017/4/14,15:00,877.8,,719.1,0.6,1.7,154.8,0,1.6,0,877.8
2017/4/14,16:00,876.8,,760,0.6,1.7,112.8,0,1.7,0,876.8
2017/4/14,17:00,860.8,,802.5,0.6,1.7,53.8,0,2.2,0,860.8
2017/4/14,18:00,860.2,,850.3,0.6,1.7,5.3,0,2.3,0,860.2
2017/4/14,19:00,896.7,,892.6,0.6,1.7,0,0,1.8,0,896.7
2017/4/14,20:00,872.8,,868.9,0.6,1.7,0,0,1.6,0,872.8
2017/4/14,21:00,831.9,,827.3,0.6,1.7,0,0,2.3,0,831.9
2017/4/14,22:00,797.5,,792.3,0.6,1.7,0,0,2.9,0,797.5
2017/4/14,23:00,757.1,,751.7,0.6,1.7,0,0,3.1,0,757.1
2017/4/15,0:00,703.1,,698.2,0.6,1.7,0,0,2.6,0,703.1
2017/4/15,1:00,679.8,,674.7,0.6,1.7,0,0,2.8,0,679.8
2017/4/15,2:00,688.6,,683.6,0.6,1.7,0,0,2.7,0,688.6
2017/4/15,3:00,720.3,,715.3,0.6,1.7,0,0,2.7,0,720.3
2017/4/15,4:00,715.4,,711.2,0.6,1.7,0,0,1.9,0,715.4
2017/4/15,5:00,692.2,,688.2,0.6,1.7,0,0,1.7,0,692.2
2017/4/15,6:00,672.5,,666.8,0.6,1.7,1.5,0,1.9,0,672.5
2017/4/15,7:00,709.2,,683.7,0.6,1.7,21.6,0,1.6,0,709.2
2017/4/15,8:00,780.2,,714.8,0.6,1.7,60.9,0,2.2,0,780.2
2017/4/15,9:00,848.3,,740.2,0.6,1.7,103.2,0,2.6,0,848.3
2017/4/15,10:00,879.8,,777.6,0.6,1.7,97.8,0,2.1,0,879.8
2017/4/15,11:00,891.3,,780.9,0.6,1.7,106.2,0,1.9,0,891.3
2017/4/15,12:00,883.7,,759,0.6,1.7,120.7,0,1.7,0,883.7
2017/4/15,13:00,914.2,,758.8,0.6,1.7,151.5,0,1.6,0,914.2
2017/4/15,14:00,869.1,,763.5,0.6,1.7,101.6,0,1.7,0,869.1
2017/4/15,15:00,901.7,,793.3,0.6,1.7,104.6,0,1.5,0,901.7
2017/4/15,16:00,885.1,,846.2,0.6,1.7,33.7,0,2.9,0,885.1
2017/4/15,17:00,886.6,,872.7,0.6,1.7,8.8,0,2.8,0,886.6
2017/4/15,18:00,911.1,,904,0.6,1.7,1.8,0,3,0,911.1
2017/4/15,19:00,935.5,,930.3,0.6,1.7,0,0,2.9,0,935.5
2017/4/15,20:00,913.9,,909.5,0.6,1.7,0,0,2.1,0,913.9
2017/4/15,21:00,876.9,,872,0.6,1.7,0,0,2.6,0,876.9
2017/4/15,22:00,827.8,,823.3,0.6,1.7,0,0,2.2,0,827.8
2017/4/15,23:00,777.8,,772.4,0.6,1.7,0,0,3.1,0,777.8
2017/4/16,0:00,723.3,,717.2,0.6,1.7,0,0,3.8,0,723.3
2017/4/16,1:00,692.6,,688.1,0.6,1.7,0,0,2.2,0,692.6
2017/4/16,2:00,700.8,,695.6,0.6,1.7,0,0,2.9,0,700.8
2017/4/16,3:00,717.2,,712.8,0.6,1.7,0,0,2.1,0,717.2
2017/4/16,4:00,713.1,,710.1,0.6,1.7,0,0,0.7,0,713.1
2017/4/16,5:00,687.6,,685,0.6,1.7,0,0,0.3,0,687.6
2017/4/16,6:00,661.2,,656.9,0.6,1.7,1.5,0,0.5,0,661.2
2017/4/16,7:00,700.7,,677.9,0.6,1.7,19.5,0,1,0,700.7
2017/4/16,8:00,747.5,,695.1,0.6,1.7,48.5,0,1.6,0,747.5
2017/4/16,9:00,807.8,,716.3,0.6,1.7,87.5,0,1.7,0,807.8
2017/4/16,10:00,844.1,,689,0.6,1.7,150.7,0,2.1,0,844.1
2017/4/16,11:00,869.1,,704.5,0.6,1.7,160.2,0,2.1,0,869.1
2017/4/16,12:00,855.9,,751.2,0.6,1.7,100.3,0,2.1,0,855.9
2017/4/16,13:00,841.3,,751.7,0.6,1.7,85.6,0,1.7,0,841.3
2017/4/16,14:00,845.8,,759,0.6,1.7,81.9,0,2.6,0,845.8
2017/4/16,15:00,830.4,,779.1,0.6,1.7,46.5,0,2.5,0,830.4
2017/4/16,16:00,835.7,,801.1,0.6,1.7,27.8,0,4.5,0,835.7
2017/4/16,17:00,852,,834,0.6,1.7,10.8,0,4.9,0,852
2017/4/16,18:00,908.1,,899.4,0.6,1.7,1.9,0,4.5,0,908.1
2017/4/16,19:00,939.4,,933.1,0.6,1.7,0,0,4,0,939.4
2017/4/16,20:00,921.1,,916.6,0.6,1.7,0,0,2.2,0,921.1
2017/4/16,21:00,880.8,,876.3,0.6,1.7,0,0,2.2,0,880.8
2017/4/16,22:00,822.1,,817.8,0.6,1.7,0,0,2,0,822.1
2017/4/16,23:00,762.9,,758.2,0.6,1.7,0,0,2.4,0,762.9
2017/4/17,0:00,708.6,,703.7,0.6,1.7,0,0,2.6,0,708.6
2017/4/17,1:00,675.9,,671.2,0.6,1.7,0,0,2.4,0,675.9
2017/4/17,2:00,692.6,,688,0.6,1.7,0,0,2.3,0,692.6
2017/4/17,3:00,720.3,,715.1,0.6,1.7,0,0,2.9,0,720.3
2017/4/17,4:00,729.9,,724.6,0.6,1.7,0,0,3,0,729.9
2017/4/17,5:00,719.3,,713.6,0.6,1.7,0,0,3.4,0,719.3
2017/4/17,6:00,743.6,,735.8,0.6,1.7,1.6,0,3.9,0,743.6
2017/4/17,7:00,808.8,,782.1,0.6,1.7,19.8,0,4.6,0,808.8
2017/4/17,8:00,863,,826.5,0.6,1.7,29.8,0,4.4,0,863
2017/4/17,9:00,922.7,,844.8,0.6,1.7,71.4,0,4.2,0,922.7
2017/4/17,10:00,947,,825.7,0.6,1.7,112.1,0,6.9,0,947
2017/4/17,11:00,966.6,,841.2,0.6,1.7,116.6,0,6.5,0,966.6
2017/4/17,12:00,948.1,,831.9,0.6,1.7,108,0,5.9,0,948.1
2017/4/17,13:00,951.1,,879.3,0.6,1.7,64.7,0,4.8,0,951.1
2017/4/17,14:00,955.5,,879.1,0.6,1.7,70.6,0,3.5,0,955.5
2017/4/17,15:00,966.3,,880.9,0.6,1.7,79.2,0,3.9,0,966.3
2017/4/17,16:00,957.4,,912.2,0.6,1.7,37.4,0,5.5,0,957.4
2017/4/17,17:00,951,,924,0.6,1.7,18,0,6.7,0,951
2017/4/17,18:00,975.1,,963.9,0.6,1.7,2.2,0,6.7,0,975.1
2017/4/17,19:00,992.6,,983.7,0.6,1.7,0,0,6.6,0,992.6
2017/4/17,20:00,960.4,,951.5,0.6,1.7,0,0,6.6,0,960.4
2017/4/17,21:00,911.1,,901.4,0.6,1.7,0,0,7.4,0,911.1
2017/4/17,22:00,867.5,,856.6,0.6,1.7,0,0,8.6,0,867.5
2017/4/17,23:00,814.2,,802.7,0.6,1.7,0,0,9.2,0,814.2
2017/4/18,0:00,752.7,,740.7,0.6,1.7,0,0,9.7,0,752.7
2017/4/18,1:00,724.8,,712.8,0.6,1.7,0,0,9.7,0,724.8
2017/4/18,2:00,733.9,,721.2,0.6,1.7,0,0,10.4,0,733.9
2017/4/18,3:00,751.2,,740.5,0.6,1.7,0,0,8.4,0,751.2
2017/4/18,4:00,747.1,,740.8,0.6,1.7,0,0,4,0,747.1
2017/4/18,5:00,733.1,,728.7,0.6,1.7,0,0,2.1,0,733.1
2017/4/18,6:00,760.1,,754.6,0.6,1.7,1.6,0,1.6,0,760.1
2017/4/18,7:00,817.7,,803.3,0.6,1.7,11.7,0,0.4,0,817.7
2017/4/18,8:00,873.2,,846.7,0.6,1.7,24.1,0,0.1,0,873.2
2017/4/18,9:00,912.6,,871.9,0.6,1.7,38,0,0.4,0,912.6
2017/4/18,10:00,948,,852.2,0.6,1.7,92.6,0,0.9,0,948
2017/4/18,11:00,936.5,,891.7,0.6,1.7,41.5,0,1,0,936.5
2017/4/18,12:00,889.6,,868.1,0.6,1.7,18.4,0,0.8,0,889.6
2017/4/18,13:00,896.9,,876.7,0.6,1.7,17.5,0,0.4,0,896.9
2017/4/18,14:00,897.5,,873.6,0.6,1.7,21,0,0.6,0,897.5
2017/4/18,15:00,901.7,,869.8,0.6,1.7,28,0,1.6,0,901.7
2017/4/18,16:00,913.1,,885.5,0.6,1.7,24.1,0,1.2,0,913.1
2017/4/18,17:00,916.8,,900,0.6,1.7,14.1,0,0.4,0,916.8
2017/4/18,18:00,930.4,,925,0.6,1.7,2.6,0,0.5,0,930.4
2017/4/18,19:00,941.4,,938.8,0.6,1.7,0,0,0.3,0,941.4
2017/4/18,20:00,911.4,,908.9,0.6,1.7,0,0,0.2,0,911.4
2017/4/18,21:00,865.7,,863.2,0.6,1.7,0,0,0.2,0,865.7
2017/4/18,22:00,806.5,,803.8,0.6,1.7,0,0,0.4,0,806.5
2017/4/18,23:00,743,,740.1,0.6,1.7,0,0,0.6,0,743
2017/4/19,0:00,683.1,,680.4,0.6,1.7,0,0,0.4,0,683.1
2017/4/19,1:00,657.9,,655.2,0.6,1.7,0,0,0.4,0,657.9
2017/4/19,2:00,668.1,,665,0.6,1.7,0,0,0.8,0,668.1
2017/4/19,3:00,694.9,,691.9,0.6,1.7,0,0,0.7,0,694.9
2017/4/19,4:00,701.4,,698,0.6,1.7,0,0,1.1,0,701.4
2017/4/19,5:00,688.4,,685.1,0.6,1.7,0,0,1,0,688.4